Location: Derby
(52.9213°N, 1.4761°W)
Time: 16:46:17
(UTC+01:00)

Vanguard 1 - Pass Details

Date: 19 May 2025
Orbit: 649 x 3822 km, 34.3° (Epoch: 14 June)

Event Time Altitude Azimuth Distance (km) Brightness Sun altitude
Rises 15:43:20 0° 186° (S) 7,771 15.0 44.8°
Reaches altitude 10° 15:54:38 10° 161° (SSE) 6,159 14.3 43.3°
Maximum altitude 15:59:42 12° 145° (SE) 5,626 14.0 42.6°
Drops below altitude 10° 16:04:12 10° 129° (SE) 5,368 13.7 42.0°
Sets 16:11:44 0° 101° (E) 5,583 13.5 41.0°
